PA3DZX-13 Weather Reports


time (UTC)temp
C
wind
direction
speed
KPH
gust
KPH
rain 1hr
cm
rain 24hr
cm
rain mn
cm
humidity
%
barometer
mb
20260902100834 20 238 17.7 27.4 0.00 0.00 0.00 57 1020.0
20260902095333 20 222 17.7 24.1 0.00 0.00 0.00 59 1020.0
20260902093833 20 233 17.7 24.1 0.00 0.00 0.00 61 1019.9
20260902092332 18 231 17.7 27.4 0.00 0.00 0.00 64 1019.9
20260902090831 18 224 12.9 27.4 0.00 0.00 0.00 64 1019.9
20260902085331 17 237 12.9 24.1 0.00 0.00 0.00 66 1019.8
20260902083830 17 227 12.9 20.9 0.00 0.00 0.00 68 1019.7
20260902082330 16 213 9.7 17.7 0.00 0.00 0.00 74 1019.7
20260902080830 16 215 9.7 17.7 0.00 0.00 0.00 73 1019.7
20260902075329 15 208 6.4 12.9 0.00 0.00 0.00 80 1019.7
20260902073828 15 200 6.4 12.9 0.00 0.00 0.00 82 1019.7
20260902072327 13 194 6.4 9.7 0.00 0.00 0.00 84 1019.6
20260902070827 13 189 3.2 6.4 0.00 0.00 0.00 88 1019.5
20260902065326 13 189 3.2 6.4 0.00 0.00 0.00 88 1019.5
20260902063825 12 195 3.2 6.4 0.00 0.00 0.00 89 1019.5
20260902062324 12 176 3.2 6.4 0.00 0.00 0.00 90 1019.6
20260902060824 11 170 6.4 6.4 0.00 0.00 0.00 92 1019.6
20260902055323 11 173 3.2 6.4 0.00 0.00 0.00 93 1019.4
20260902053823 10 171 3.2 6.4 0.00 0.00 0.00 93 1019.4
20260902052322 10 191 3.2 3.2 0.00 0.00 0.00 91 1019.4
20260902050822 10 183 3.2 3.2 0.00 0.00 0.00 94 1019.4
20260902045321 10 158 3.2 3.2 0.00 0.00 0.00 93 1019.4
20260902043821 10 151 3.2 3.2 0.00 0.00 0.00 94 1019.2
20260902042320 10 157 3.2 3.2 0.00 0.00 0.00 94 1019.3
20260902040820 10 165 3.2 3.2 0.00 0.00 0.00 95 1019.4
20260902035319 10 157 3.2 3.2 0.00 0.00 0.00 96 1019.6
20260902033818 10 151 3.2 3.2 0.00 0.00 0.00 95 1019.6
20260902032318 10 175 0.0 0.0 0.00 0.00 0.00 95 1019.7
20260902030818 10 181 0.0 0.0 0.00 0.00 0.00 96 1019.7
20260902025317 10 185 0.0 3.2 0.00 0.00 0.00 95 1019.8
20260902023816 10 165 3.2 3.2 0.00 0.00 0.00 95 1019.9
20260902022315 10 165 3.2 3.2 0.00 0.00 0.00 95 1019.9
20260902020815 10 173 0.0 3.2 0.00 0.00 0.00 96 1019.9
20260902015315 10 163 3.2 3.2 0.00 0.00 0.00 96 1019.9
20260902013813 10 156 3.2 3.2 0.00 0.00 0.00 95 1019.8
20260902012313 8 151 0.0 3.2 0.00 0.00 0.00 95 1019.9
20260902010812 8 153 0.0 3.2 0.00 0.00 0.00 96 1020.0
20260902005313 10 181 0.0 3.2 0.00 0.00 0.00 96 1020.0
20260902003812 10 174 3.2 3.2 0.00 0.00 0.00 96 1020.0
20260902002312 10 123 0.0 0.0 0.00 0.00 0.00 95 1020.0
20260902000812 10 122 0.0 0.0 0.00 0.00 0.00 97 1020.0
20260901235310 10 331 0.0 0.0 0.00 0.00 0.00 95 1020.2
20260901233811 10 330 0.0 0.0 0.00 0.00 0.00 98 1020.2
20260901232310 10 331 0.0 0.0 0.00 0.00 0.00 96 1020.1
20260901230810 8 87 0.0 3.2 0.00 0.00 0.00 96 1020.1
20260901225309 10 127 3.2 3.2 0.00 0.00 0.00 95 1020.5
20260901223810 10 129 0.0 0.0 0.00 0.00 0.00 96 1020.7
20260901222309 10 127 0.0 0.0 0.00 0.00 0.00 99 1020.7
20260901220808 8 128 0.0 3.2 0.00 0.00 0.00 96 1020.8
20260901215308 10 128 0.0 0.0 0.00 0.00 0.00 95 1020.9
20260901213809 10 128 0.0 0.0 0.00 0.00 0.00 96 1020.8
20260901212309 10 128 0.0 0.0 0.00 0.00 0.00 95 1020.6
20260901210808 10 129 0.0 0.0 0.00 0.00 0.00 96 1020.7
20260901205308 10 128 0.0 0.0 0.00 0.00 0.00 95 1020.5
20260901203807 11 128 0.0 3.2 0.00 0.00 0.00 96 1020.4
20260901202306 10 123 0.0 0.0 0.00 0.00 0.00 94 1020.4
20260901200805 11 112 0.0 3.2 0.00 0.00 0.00 96 1020.3
20260901195306 11 127 0.0 3.2 0.00 0.00 0.00 92 1020.2
20260901193804 11 152 0.0 0.0 0.00 0.00 0.00 89 1020.3
20260901192301 13 157 0.0 0.0 0.00 0.00 0.00 85 1020.4
20260901190800 13 169 0.0 3.2 0.00 0.00 0.00 84 1020.4
20260901185259 13 328 0.0 3.2 0.00 0.00 0.00 81 1020.3
20260901183759 15 310 3.2 6.4 0.00 0.00 0.00 71 1020.2
20260901182258 17 306 6.4 9.7 0.00 0.00 0.00 66 1020.1
20260901180758 17 304 6.4 12.9 0.00 0.00 0.00 64 1020.1
20260901175258 18 298 6.4 12.9 0.00 0.00 0.00 61 1020.0
20260901173758 18 308 9.7 12.9 0.00 0.00 0.00 60 1019.9
20260901172257 18 312 9.7 17.7 0.00 0.00 0.00 57 1019.8
20260901170757 18 317 6.4 17.7 0.00 0.00 0.00 58 1019.8
20260901165256 18 293 12.9 20.9 0.00 0.00 0.00 56 1019.7
20260901163756 20 290 12.9 20.9 0.00 0.00 0.00 51 1019.6
20260901162255 20 270 12.9 20.9 0.00 0.00 0.00 53 1019.5
20260901160754 20 282 12.9 24.1 0.00 0.00 0.00 52 1019.5
20260901155253 20 293 9.7 17.7 0.00 0.00 0.00 49 1019.5
20260901153752 20 298 9.7 24.1 0.00 0.00 0.00 50 1019.4
20260901152252 20 267 12.9 27.4 0.00 0.00 0.00 47 1019.3
20260901150752 20 260 20.9 27.4 0.00 0.00 0.00 48 1019.3
20260901145251 20 263 17.7 27.4 0.00 0.00 0.00 47 1019.3
20260901143751 20 266 17.7 24.1 0.00 0.00 0.00 50 1019.3
20260901142250 20 282 12.9 27.4 0.00 0.00 0.00 49 1019.3
20260901140749 20 277 12.9 27.4 0.00 0.00 0.00 50 1019.2
20260901135248 21 281 17.7 27.4 0.00 0.00 0.00 50 1019.2
20260901133748 20 293 17.7 27.4 0.00 0.00 0.00 49 1019.1
20260901132247 20 279 17.7 35.4 0.00 0.00 0.00 53 1019.0
20260901130747 20 295 20.9 35.4 0.00 0.00 0.00 54 1019.1
20260901125246 20 275 17.7 27.4 0.00 0.00 0.00 54 1019.1
20260901123747 20 289 17.7 27.4 0.00 0.00 0.00 54 1019.1
20260901122245 20 286 12.9 27.4 0.00 0.00 0.00 55 1018.9
20260901120745 20 268 17.7 32.2 0.00 0.00 0.00 60 1018.9
20260901115244 20 278 17.7 27.4 0.00 0.00 0.00 58 1018.8
20260901113745 20 267 9.7 24.1 0.00 0.00 0.00 67 1018.8
20260901112244 18 237 12.9 27.4 0.00 0.00 0.00 72 1018.8
20260901110743 18 225 9.7 12.9 0.00 0.00 0.00 79 1018.9
20260901105243 17 241 12.9 20.9 0.00 0.00 0.00 82 1019.0
20260901103742 17 228 12.9 20.9 0.00 0.00 0.00 83 1019.0
20260901102242 17 206 9.7 20.9 0.00 0.00 0.00 86 1019.0